Location: Unspecified
(41.1670°N, 0.0000°E)
Time: 03:40:17
(UTC+00:00)

CZ-4 DEB - Visible Passes

Search period start: 04 April 2026 00:00
Search period end: 14 April 2026 00:00
Orbit: 700 x 854 km, 98.6° (Epoch: 25 March)

Date Brightness Start Highest point End Pass type
(mag) Time Alt. Az. Time Alt. Az. Time Alt. Az.
4 Apr ? 01:09:01 10° NNE 01:09:39 14° NNE 01:09:39 14° NNE visible
5 Apr ? 02:15:27 10° N 02:16:24 15° NNW 02:16:24 15° NNW visible
6 Apr ? 01:41:32 10° N 01:42:43 18° N 01:42:43 18° N visible
7 Apr ? 01:08:03 10° NNE 01:09:01 16° NNE 01:09:01 16° NNE visible
7 Apr ? 02:49:12 10° NNW 02:49:28 11° NW 02:49:28 11° NW visible
8 Apr ? 00:35:01 10° NNE 00:35:20 12° NE 00:35:20 12° NE visible
8 Apr ? 02:14:27 10° N 02:15:47 17° NNW 02:15:47 17° NNW visible
9 Apr ? 01:40:33 10° N 01:42:06 20° N 01:42:06 20° N visible
10 Apr ? 01:07:04 10° NNE 01:08:25 19° NNE 01:08:25 19° NNE visible
10 Apr ? 02:48:08 10° NNW 02:48:51 12° NW 02:48:51 12° NW visible
11 Apr ? 00:34:04 10° NE 00:34:43 13° NE 00:34:43 13° NE visible
11 Apr ? 02:13:27 10° N 02:15:10 19° NNW 02:15:10 19° NNW visible
12 Apr ? 01:39:33 10° N 01:41:29 24° N 01:41:29 24° N visible
13 Apr ? 01:06:06 10° NNE 01:07:48 22° NNE 01:07:48 22° NNE visible
13 Apr ? 02:47:04 10° NNW 02:48:15 13° NW 02:48:15 13° NW visible
